Time,TemperatureF,DewpointF,PressureIn,WindDirection,WindDirectionDegrees,WindSpeedMPH,WindSpeedGustMPH,Humidity,HourlyPrecipIn,Conditions,Clouds,dailyrainin,SoftwareType,DateUTC
2013-10-01 00:01:00,58.8,50.9,29.85,South,178,2.0,8.0,75,0.00,,,0.00,meteohub,2013-10-01 04:01:00,
2013-10-01 00:02:00,58.6,50.7,29.85,SSE,165,1.0,8.0,75,0.00,,,0.00,meteohub,2013-10-01 04:02:00,
2013-10-01 00:07:00,58.6,50.7,29.85,East,82,5.0,8.0,75,0.00,,,0.00,meteohub,2013-10-01 04:07:00,
2013-10-01 00:12:00,58.6,50.7,29.85,ESE,120,4.0,7.0,75,0.00,,,0.00,meteohub,2013-10-01 04:12:00,
2013-10-01 00:17:00,58.8,50.9,29.86,NE,51,1.0,7.0,75,0.00,,,0.00,meteohub,2013-10-01 04:17:00,
2013-10-01 00:23:00,59.0,51.1,29.86,SW,226,2.0,8.0,75,0.00,,,0.00,meteohub,2013-10-01 04:23:00,
2013-10-01 00:28:00,59.2,51.3,29.86,SSE,154,4.0,8.0,75,0.00,,,0.00,meteohub,2013-10-01 04:28:00,
2013-10-01 00:33:00,59.2,50.9,29.86,SSE,157,5.0,8.0,74,0.00,,,0.00,meteohub,2013-10-01 04:33:00,
2013-10-01 00:38:00,59.2,50.9,29.86,East,100,2.0,8.0,74,0.00,,,0.00,meteohub,2013-10-01 04:38:00,
2013-10-01 00:43:00,59.0,51.1,29.86,SSW,192,2.0,8.0,75,0.00,,,0.00,meteohub,2013-10-01 04:43:00,
2013-10-01 00:48:00,59.0,51.1,29.86,WSW,243,1.0,7.0,75,0.00,,,0.00,meteohub,2013-10-01 04:48:00,
2013-10-01 00:53:00,59.2,51.3,29.86,SE,133,3.0,7.0,75,0.00,,,0.00,meteohub,2013-10-01 04:53:00,
2013-10-01 00:58:00,59.2,50.9,29.86,NE,51,1.0,8.0,74,0.00,,,0.00,meteohub,2013-10-01 04:58:00,
2013-10-01 01:03:00,59.2,51.3,29.86,South,169,2.0,8.0,75,0.00,,,0.00,meteohub,2013-10-01 05:03:00,
2013-10-01 01:08:00,59.2,51.3,29.86,East,88,3.0,7.0,75,0.00,,,0.00,meteohub,2013-10-01 05:08:00,
2013-10-01 01:13:00,59.0,51.1,29.86,South,179,5.0,7.0,75,0.00,,,0.00,meteohub,2013-10-01 05:13:00,
2013-10-01 01:18:00,59.0,51.1,29.86,NE,56,2.0,6.0,75,0.00,,,0.00,meteohub,2013-10-01 05:18:00,
2013-10-01 01:23:00,58.8,50.9,29.87,South,183,3.0,6.0,75,0.00,,,0.00,meteohub,2013-10-01 05:23:00,
2013-10-01 01:28:00,58.8,50.9,29.87,ENE,67,3.0,6.0,75,0.00,,,0.00,meteohub,2013-10-01 05:28:00,
2013-10-01 01:33:00,58.8,50.9,29.87,ESE,123,3.0,6.0,75,0.00,,,0.00,meteohub,2013-10-01 05:33:00,
2013-10-01 01:38:00,58.6,50.7,29.87,South,174,5.0,6.0,75,0.00,,,0.00,meteohub,2013-10-01 05:38:00,
2013-10-01 01:43:00,58.6,50.7,29.87,SE,140,3.0,6.0,75,0.00,,,0.00,meteohub,2013-10-01 05:43:00,
2013-10-01 01:48:00,58.6,50.7,29.88,SSW,212,3.0,7.0,75,0.00,,,0.00,meteohub,2013-10-01 05:48:00,
2013-10-01 01:54:00,58.5,50.9,29.87,SSE,150,3.0,7.0,76,0.00,,,0.00,meteohub,2013-10-01 05:54:00,
2013-10-01 01:58:00,58.5,50.9,29.88,South,188,2.0,8.0,76,0.00,,,0.00,meteohub,2013-10-01 05:58:00,
2013-10-01 02:03:00,58.5,50.9,29.88,SSE,152,5.0,8.0,76,0.00,,,0.00,meteohub,2013-10-01 06:03:00,
2013-10-01 02:09:00,58.1,50.5,29.88,NE,48,1.0,9.0,76,0.00,,,0.00,meteohub,2013-10-01 06:09:00,
2013-10-01 02:14:00,57.6,50.4,29.88,SE,140,1.0,9.0,77,0.00,,,0.00,meteohub,2013-10-01 06:14:00,
2013-10-01 02:19:00,57.0,50.2,29.88,WSW,240,2.0,9.0,78,0.00,,,0.00,meteohub,2013-10-01 06:19:00,
2013-10-01 02:24:00,56.8,50.4,29.88,ESE,106,0.0,6.0,79,0.00,,,0.00,meteohub,2013-10-01 06:24:00,
2013-10-01 02:29:00,56.7,50.2,29.88,East,88,1.0,6.0,79,0.00,,,0.00,meteohub,2013-10-01 06:29:00,
2013-10-01 02:34:00,56.5,50.0,29.88,ESE,105,1.0,6.0,79,0.00,,,0.00,meteohub,2013-10-01 06:34:00,
2013-10-01 02:39:00,56.1,50.0,29.88,SW,226,0.0,3.0,80,0.00,,,0.00,meteohub,2013-10-01 06:39:00,
2013-10-01 02:44:00,55.9,49.8,29.88,SSW,196,0.0,3.0,80,0.00,,,0.00,meteohub,2013-10-01 06:44:00,
2013-10-01 02:49:00,55.8,49.6,29.88,WNW,287,1.0,3.0,80,0.00,,,0.00,meteohub,2013-10-01 06:49:00,
2013-10-01 02:54:00,55.8,49.6,29.88,NE,55,0.0,3.0,80,0.00,,,0.00,meteohub,2013-10-01 06:54:00,
2013-10-01 02:59:00,55.6,49.5,29.88,NE,56,1.0,3.0,80,0.00,,,0.00,meteohub,2013-10-01 06:59:00,
2013-10-01 03:04:00,55.6,49.5,29.87,NE,48,1.0,2.0,80,0.00,,,0.00,meteohub,2013-10-01 07:04:00,
2013-10-01 03:09:00,55.6,49.8,29.87,NE,34,0.0,5.0,81,0.00,,,0.00,meteohub,2013-10-01 07:09:00,
2013-10-01 03:14:00,55.4,49.6,29.87,ENE,58,1.0,5.0,81,0.00,,,0.00,meteohub,2013-10-01 07:14:00,
2013-10-01 03:19:00,55.2,49.5,29.86,SSW,209,0.0,5.0,81,0.00,,,0.00,meteohub,2013-10-01 07:19:00,
2013-10-01 03:24:00,55.0,49.3,29.87,SE,141,3.0,4.0,81,0.00,,,0.00,meteohub,2013-10-01 07:24:00,
2013-10-01 03:29:00,55.0,49.3,29.86,SSE,161,0.0,4.0,81,0.00,,,0.00,meteohub,2013-10-01 07:29:00,
2013-10-01 03:34:00,55.0,49.3,29.86,SSE,160,0.0,4.0,81,0.00,,,0.00,meteohub,2013-10-01 07:34:00,
2013-10-01 03:39:00,54.9,49.1,29.86,South,188,0.0,3.0,81,0.00,,,0.00,meteohub,2013-10-01 07:39:00,
2013-10-01 03:44:00,54.9,49.1,29.86,South,172,0.0,3.0,81,0.00,,,0.00,meteohub,2013-10-01 07:44:00,
2013-10-01 03:49:00,54.9,49.1,29.86,SE,138,2.0,2.0,81,0.00,,,0.00,meteohub,2013-10-01 07:49:00,
2013-10-01 03:54:00,54.9,49.1,29.86,East,94,1.0,2.0,81,0.00,,,0.00,meteohub,2013-10-01 07:54:00,
2013-10-01 03:59:00,54.9,49.1,29.85,ESE,102,1.0,4.0,81,0.00,,,0.00,meteohub,2013-10-01 07:59:00,
2013-10-01 04:04:00,54.9,49.1,29.85,SSE,151,0.0,4.0,81,0.00,,,0.00,meteohub,2013-10-01 08:04:00,
2013-10-01 04:09:00,54.9,49.1,29.86,SW,226,2.0,4.0,81,0.00,,,0.00,meteohub,2013-10-01 08:09:00,
2013-10-01 04:14:00,55.0,49.3,29.85,SSW,212,3.0,4.0,81,0.00,,,0.00,meteohub,2013-10-01 08:14:00,
2013-10-01 04:19:00,55.2,49.5,29.85,East,89,2.0,4.0,81,0.00,,,0.00,meteohub,2013-10-01 08:19:00,
2013-10-01 04:24:00,55.2,49.1,29.85,SW,228,2.0,4.0,80,0.00,,,0.00,meteohub,2013-10-01 08:24:00,
2013-10-01 04:29:00,55.4,49.3,29.85,South,175,3.0,6.0,80,0.00,,,0.00,meteohub,2013-10-01 08:29:00,
2013-10-01 04:34:00,55.6,49.8,29.85,ESE,123,3.0,6.0,81,0.00,,,0.00,meteohub,2013-10-01 08:34:00,
2013-10-01 04:40:00,55.6,49.8,29.85,South,169,3.0,6.0,81,0.00,,,0.00,meteohub,2013-10-01 08:40:00,
2013-10-01 04:45:00,55.6,49.8,29.85,ESE,112,1.0,5.0,81,0.00,,,0.00,meteohub,2013-10-01 08:45:00,
2013-10-01 04:50:00,55.9,50.2,29.85,South,182,1.0,5.0,81,0.00,,,0.00,meteohub,2013-10-01 08:50:00,
2013-10-01 04:55:00,56.1,50.4,29.84,SSW,207,1.0,5.0,81,0.00,,,0.00,meteohub,2013-10-01 08:55:00,
2013-10-01 05:00:00,56.3,50.5,29.84,SW,214,1.0,6.0,81,0.00,,,0.00,meteohub,2013-10-01 09:00:00,
2013-10-01 05:05:00,56.3,50.5,29.84,ESE,108,4.0,6.0,81,0.00,,,0.00,meteohub,2013-10-01 09:05:00,
2013-10-01 05:10:00,56.5,50.7,29.84,ENE,78,0.0,7.0,81,0.00,,,0.00,meteohub,2013-10-01 09:10:00,
2013-10-01 05:16:00,56.7,50.5,29.84,South,184,0.0,7.0,80,0.00,,,0.00,meteohub,2013-10-01 09:16:00,
2013-10-01 05:21:00,56.8,50.7,29.84,South,171,2.0,6.0,80,0.00,,,0.00,meteohub,2013-10-01 09:21:00,
2013-10-01 05:26:00,56.8,51.1,29.83,ENE,73,4.0,6.0,81,0.00,,,0.00,meteohub,2013-10-01 09:26:00,
2013-10-01 05:32:00,57.0,50.9,29.84,ESE,108,0.0,5.0,80,0.00,,,0.00,meteohub,2013-10-01 09:32:00,
2013-10-01 05:36:00,57.4,51.3,29.83,ENE,77,1.0,5.0,80,0.00,,,0.00,meteohub,2013-10-01 09:36:00,
2013-10-01 05:41:00,57.6,51.4,29.83,SSE,154,3.0,5.0,80,0.00,,,0.00,meteohub,2013-10-01 09:41:00,
2013-10-01 05:46:00,57.9,51.4,29.83,ENE,61,1.0,5.0,79,0.00,,,0.00,meteohub,2013-10-01 09:46:00,
2013-10-01 05:51:00,58.3,51.8,29.83,East,89,4.0,6.0,79,0.00,,,0.00,meteohub,2013-10-01 09:51:00,
2013-10-01 05:56:00,58.5,51.6,29.83,East,83,2.0,6.0,78,0.00,,,0.00,meteohub,2013-10-01 09:56:00,
2013-10-01 06:02:00,58.6,51.8,29.83,ENE,60,4.0,5.0,78,0.00,,,0.00,meteohub,2013-10-01 10:02:00,
2013-10-01 06:07:00,58.8,51.6,29.83,ESE,120,2.0,6.0,77,0.00,,,0.00,meteohub,2013-10-01 10:07:00,
2013-10-01 06:12:00,59.2,52.3,29.83,ENE,77,1.0,6.0,78,0.00,,,0.00,meteohub,2013-10-01 10:12:00,
2013-10-01 06:17:00,59.4,52.2,29.83,SSE,164,3.0,10.0,77,0.00,,,0.00,meteohub,2013-10-01 10:17:00,
2013-10-01 06:22:00,59.4,52.2,29.83,SE,129,1.0,10.0,77,0.00,,,0.00,meteohub,2013-10-01 10:22:00,
2013-10-01 06:27:00,59.4,52.2,29.83,SSW,209,1.0,10.0,77,0.00,,,0.00,meteohub,2013-10-01 10:27:00,
2013-10-01 06:32:00,59.4,52.2,29.83,ESE,120,1.0,6.0,77,0.00,,,0.00,meteohub,2013-10-01 10:32:00,
2013-10-01 06:37:00,59.2,52.3,29.83,SE,136,3.0,6.0,78,0.00,,,0.00,meteohub,2013-10-01 10:37:00,
2013-10-01 06:42:00,59.2,52.3,29.83,South,190,2.0,5.0,78,0.00,,,0.00,meteohub,2013-10-01 10:42:00,
2013-10-01 06:47:00,59.2,52.3,29.83,SE,142,1.0,5.0,78,0.00,,,0.00,meteohub,2013-10-01 10:47:00,
2013-10-01 06:52:00,59.2,52.3,29.83,SW,224,4.0,5.0,78,0.00,,,0.00,meteohub,2013-10-01 10:52:00,
2013-10-01 06:57:00,59.0,52.5,29.83,ENE,75,1.0,4.0,79,0.00,,,0.00,meteohub,2013-10-01 10:57:00,
2013-10-01 07:02:00,59.0,52.5,29.83,ESE,112,6.0,6.0,79,0.00,,,0.00,meteohub,2013-10-01 11:02:00,
2013-10-01 07:08:00,59.2,52.7,29.83,East,80,1.0,6.0,79,0.00,,,0.00,meteohub,2013-10-01 11:08:00,
2013-10-01 07:13:00,59.0,52.5,29.83,SSW,212,0.0,8.0,79,0.00,,,0.00,meteohub,2013-10-01 11:13:00,
2013-10-01 07:18:00,59.0,52.5,29.83,East,95,0.0,8.0,79,0.00,,,0.00,meteohub,2013-10-01 11:18:00,
2013-10-01 07:23:00,59.2,52.7,29.83,SE,129,2.0,8.0,79,0.00,,,0.00,meteohub,2013-10-01 11:23:00,
2013-10-01 07:28:00,59.2,53.1,29.83,NE,41,1.0,6.0,80,0.00,,,0.00,meteohub,2013-10-01 11:28:00,
2013-10-01 07:33:00,59.0,52.9,29.83,East,100,1.0,6.0,80,0.00,,,0.00,meteohub,2013-10-01 11:33:00,
2013-10-01 07:38:00,58.8,52.7,29.82,South,188,1.0,6.0,80,0.00,,,0.00,meteohub,2013-10-01 11:38:00,
2013-10-01 07:43:00,58.8,53.1,29.82,ESE,102,4.0,4.0,81,0.00,,,0.00,meteohub,2013-10-01 11:43:00,
2013-10-01 07:48:00,58.8,53.1,29.83,ESE,121,0.0,5.0,81,0.00,,,0.00,meteohub,2013-10-01 11:48:00,
2013-10-01 07:53:00,58.8,53.1,29.82,SE,127,2.0,5.0,81,0.00,,,0.00,meteohub,2013-10-01 11:53:00,
2013-10-01 07:58:00,58.8,53.1,29.83,ENE,75,1.0,5.0,81,0.00,,,0.00,meteohub,2013-10-01 11:58:00,
2013-10-01 08:03:00,59.0,53.6,29.83,ENE,70,0.0,4.0,82,0.00,,,0.00,meteohub,2013-10-01 12:03:00,
2013-10-01 08:08:00,59.2,53.6,29.83,SSE,147,2.0,5.0,82,0.00,,,0.00,meteohub,2013-10-01 12:08:00,
2013-10-01 08:13:00,59.4,53.8,29.83,ENE,67,2.0,5.0,82,0.00,,,0.00,meteohub,2013-10-01 12:13:00,
2013-10-01 08:18:00,59.7,54.1,29.82,ENE,74,2.0,6.0,82,0.00,,,0.00,meteohub,2013-10-01 12:18:00,
2013-10-01 08:23:00,60.4,54.5,29.82,East,83,1.0,6.0,81,0.00,,,0.00,meteohub,2013-10-01 12:23:00,
2013-10-01 08:28:00,60.4,54.5,29.82,ENE,72,1.0,6.0,81,0.00,,,0.00,meteohub,2013-10-01 12:28:00,
2013-10-01 08:33:00,60.4,54.5,29.82,ESE,103,0.0,6.0,81,0.00,,,0.00,meteohub,2013-10-01 12:33:00,
2013-10-01 08:38:00,60.3,54.3,29.83,South,175,0.0,6.0,81,0.00,,,0.00,meteohub,2013-10-01 12:38:00,
2013-10-01 08:43:00,60.4,54.5,29.82,NNE,24,0.0,6.0,81,0.00,,,0.00,meteohub,2013-10-01 12:43:00,
2013-10-01 08:48:00,60.3,54.3,29.82,SW,231,1.0,6.0,81,0.00,,,0.00,meteohub,2013-10-01 12:48:00,
2013-10-01 08:53:00,60.1,54.5,29.82,ENE,70,3.0,6.0,82,0.00,,,0.00,meteohub,2013-10-01 12:53:00,
2013-10-01 08:59:00,60.4,54.9,29.82,SSE,155,0.0,4.0,82,0.00,,,0.00,meteohub,2013-10-01 12:59:00,
2013-10-01 09:04:00,60.6,55.0,29.82,ENE,78,1.0,6.0,82,0.00,,,0.00,meteohub,2013-10-01 13:04:00,
2013-10-01 09:09:00,61.2,55.6,29.81,NE,53,2.0,6.0,82,0.00,,,0.00,meteohub,2013-10-01 13:09:00,
2013-10-01 09:14:00,62.1,56.1,29.81,South,172,2.0,6.0,81,0.00,,,0.00,meteohub,2013-10-01 13:14:00,
2013-10-01 09:19:00,62.8,56.5,29.81,ENE,64,3.0,6.0,80,0.00,,,0.00,meteohub,2013-10-01 13:19:00,
2013-10-01 09:24:00,63.1,56.5,29.81,NE,48,4.0,6.0,79,0.00,,,0.00,meteohub,2013-10-01 13:24:00,
2013-10-01 09:29:00,63.5,56.8,29.81,ESE,105,3.0,6.0,79,0.00,,,0.00,meteohub,2013-10-01 13:29:00,
2013-10-01 09:34:00,63.9,57.2,29.81,South,183,2.0,7.0,79,0.00,,,0.00,meteohub,2013-10-01 13:34:00,
2013-10-01 09:39:00,64.2,57.9,29.81,SSW,212,2.0,7.0,80,0.00,,,0.00,meteohub,2013-10-01 13:39:00,
2013-10-01 09:44:00,64.8,58.1,29.81,East,86,2.0,7.0,79,0.00,,,0.00,meteohub,2013-10-01 13:44:00,
2013-10-01 09:49:00,64.9,57.9,29.81,ESE,106,2.0,5.0,78,0.00,,,0.00,meteohub,2013-10-01 13:49:00,
2013-10-01 09:54:00,64.8,58.1,29.80,ENE,71,3.0,6.0,79,0.00,,,0.00,meteohub,2013-10-01 13:54:00,
2013-10-01 09:59:00,64.8,58.1,29.80,SSE,157,3.0,6.0,79,0.00,,,0.00,meteohub,2013-10-01 13:59:00,
2013-10-01 10:04:00,64.9,58.3,29.80,SSW,195,2.0,6.0,79,0.00,,,0.00,meteohub,2013-10-01 14:04:00,
2013-10-01 10:09:00,65.7,59.0,29.79,SSW,209,2.0,6.0,79,0.00,,,0.00,meteohub,2013-10-01 14:09:00,
2013-10-01 10:14:00,66.4,59.4,29.79,South,181,1.0,7.0,78,0.00,,,0.00,meteohub,2013-10-01 14:14:00,
2013-10-01 10:19:00,66.9,60.3,29.79,WSW,250,0.0,7.0,79,0.00,,,0.00,meteohub,2013-10-01 14:19:00,
2013-10-01 10:24:00,67.6,60.3,29.78,ENE,68,1.0,7.0,77,0.00,,,0.00,meteohub,2013-10-01 14:24:00,
2013-10-01 10:30:00,68.4,60.4,29.78,West,281,2.0,5.0,76,0.00,,,0.00,meteohub,2013-10-01 14:30:00,
2013-10-01 10:35:00,68.7,60.8,29.78,SE,136,2.0,7.0,76,0.00,,,0.00,meteohub,2013-10-01 14:35:00,
2013-10-01 10:40:00,69.1,60.8,29.79,South,188,5.0,7.0,75,0.00,,,0.00,meteohub,2013-10-01 14:40:00,
2013-10-01 10:45:00,69.3,61.0,29.79,NE,47,2.0,7.0,75,0.00,,,0.00,meteohub,2013-10-01 14:45:00,
2013-10-01 10:50:00,69.4,61.2,29.79,ENE,74,1.0,8.0,75,0.00,,,0.00,meteohub,2013-10-01 14:50:00,
2013-10-01 10:55:00,69.6,61.3,29.79,SW,219,2.0,9.0,75,0.00,,,0.00,meteohub,2013-10-01 14:55:00,
2013-10-01 11:00:00,70.2,61.5,29.79,ENE,65,2.0,9.0,74,0.00,,,0.00,meteohub,2013-10-01 15:00:00,
2013-10-01 11:05:00,70.2,61.5,29.79,SSW,199,1.0,11.0,74,0.00,,,0.00,meteohub,2013-10-01 15:05:00,
2013-10-01 11:11:00,70.2,61.2,29.79,South,175,6.0,11.0,73,0.00,,,0.00,meteohub,2013-10-01 15:11:00,
2013-10-01 11:16:00,70.0,61.3,29.79,ESE,112,3.0,14.0,74,0.00,,,0.00,meteohub,2013-10-01 15:16:00,
2013-10-01 11:21:00,69.4,61.2,29.78,SW,227,3.0,14.0,75,0.00,,,0.00,meteohub,2013-10-01 15:21:00,
2013-10-01 11:26:00,70.0,61.7,29.78,East,98,3.0,13.0,75,0.00,,,0.00,meteohub,2013-10-01 15:26:00,
2013-10-01 11:31:00,70.5,61.9,29.78,NNW,340,1.0,13.0,74,0.00,,,0.00,meteohub,2013-10-01 15:31:00,
2013-10-01 11:36:00,71.1,61.9,29.78,NE,48,0.0,13.0,73,0.00,,,0.00,meteohub,2013-10-01 15:36:00,
2013-10-01 11:42:00,71.4,61.9,29.77,SSW,192,1.0,9.0,72,0.00,,,0.00,meteohub,2013-10-01 15:42:00,
2013-10-01 11:47:00,72.0,62.4,29.77,NNE,29,2.0,9.0,72,0.00,,,0.00,meteohub,2013-10-01 15:47:00,
2013-10-01 11:52:00,72.3,62.4,29.77,South,176,3.0,9.0,71,0.00,,,0.00,meteohub,2013-10-01 15:52:00,
2013-10-01 11:57:00,72.7,62.8,29.77,South,190,4.0,9.0,71,0.00,,,0.00,meteohub,2013-10-01 15:57:00,
2013-10-01 12:02:00,72.5,62.6,29.77,SE,143,5.0,10.0,71,0.00,,,0.00,meteohub,2013-10-01 16:02:00,
2013-10-01 12:07:00,72.3,62.1,29.77,SW,224,3.0,11.0,70,0.00,,,0.00,meteohub,2013-10-01 16:07:00,
2013-10-01 12:13:00,72.0,62.1,29.77,North,7,2.0,14.0,71,0.00,,,0.00,meteohub,2013-10-01 16:13:00,
2013-10-01 12:18:00,72.3,62.8,29.77,SSE,155,2.0,14.0,72,0.00,,,0.00,meteohub,2013-10-01 16:18:00,
2013-10-01 12:23:00,72.7,62.8,29.76,SSW,206,1.0,14.0,71,0.00,,,0.00,meteohub,2013-10-01 16:23:00,
2013-10-01 12:28:00,72.9,62.4,29.76,SE,141,3.0,14.0,70,0.00,,,0.00,meteohub,2013-10-01 16:28:00,
2013-10-01 12:31:00,72.9,63.3,29.76,SSW,210,1.0,11.0,72,0.00,,,0.00,meteohub,2013-10-01 16:31:00,
2013-10-01 12:36:00,73.2,62.8,29.76,ENE,77,2.0,11.0,70,0.00,,,0.00,meteohub,2013-10-01 16:36:00,
2013-10-01 12:41:00,73.6,63.7,29.75,SE,143,2.0,11.0,71,0.00,,,0.00,meteohub,2013-10-01 16:41:00,
2013-10-01 12:46:00,73.9,63.5,29.75,NE,50,4.0,10.0,70,0.00,,,0.00,meteohub,2013-10-01 16:46:00,
2013-10-01 12:51:00,74.5,63.1,29.75,SW,233,5.0,10.0,68,0.00,,,0.00,meteohub,2013-10-01 16:51:00,
2013-10-01 12:56:00,74.8,64.0,29.75,SW,234,1.0,8.0,69,0.00,,,0.00,meteohub,2013-10-01 16:56:00,
2013-10-01 13:01:00,74.8,63.1,29.75,NW,317,1.0,8.0,67,0.00,,,0.00,meteohub,2013-10-01 17:01:00,
2013-10-01 13:06:00,74.8,63.1,29.75,NNE,20,5.0,11.0,67,0.00,,,0.00,meteohub,2013-10-01 17:06:00,
2013-10-01 13:12:00,75.0,63.3,29.75,ENE,71,2.0,12.0,67,0.00,,,0.00,meteohub,2013-10-01 17:12:00,
2013-10-01 13:17:00,75.7,63.1,29.75,SSW,200,4.0,12.0,65,0.00,,,0.00,meteohub,2013-10-01 17:17:00,
2013-10-01 13:22:00,75.7,63.1,29.75,NNW,342,4.0,12.0,65,0.00,,,0.00,meteohub,2013-10-01 17:22:00,
2013-10-01 13:27:00,75.9,62.8,29.75,ENE,67,10.0,12.0,64,0.00,,,0.00,meteohub,2013-10-01 17:27:00,
2013-10-01 13:32:00,75.9,62.8,29.75,NNW,347,7.0,12.0,64,0.00,,,0.00,meteohub,2013-10-01 17:32:00,
2013-10-01 13:37:00,76.3,62.8,29.75,SE,134,4.0,11.0,63,0.00,,,0.00,meteohub,2013-10-01 17:37:00,
2013-10-01 13:42:00,76.3,62.8,29.74,ESE,109,2.0,11.0,63,0.00,,,0.00,meteohub,2013-10-01 17:42:00,
2013-10-01 13:47:00,76.3,62.8,29.74,North,350,1.0,12.0,63,0.00,,,0.00,meteohub,2013-10-01 17:47:00,
2013-10-01 13:52:00,76.5,63.0,29.73,South,190,4.0,12.0,63,0.00,,,0.00,meteohub,2013-10-01 17:52:00,
2013-10-01 13:57:00,76.5,62.1,29.73,SW,223,3.0,17.0,61,0.00,,,0.00,meteohub,2013-10-01 17:57:00,
2013-10-01 14:02:00,76.8,62.4,29.73,East,92,2.0,17.0,61,0.00,,,0.00,meteohub,2013-10-01 18:02:00,
2013-10-01 14:07:00,77.2,62.6,29.73,East,96,5.0,14.0,61,0.00,,,0.00,meteohub,2013-10-01 18:07:00,
2013-10-01 14:12:00,77.4,62.4,29.72,SW,217,3.0,14.0,60,0.00,,,0.00,meteohub,2013-10-01 18:12:00,
2013-10-01 14:18:00,77.4,61.9,29.72,SSW,200,5.0,11.0,59,0.00,,,0.00,meteohub,2013-10-01 18:18:00,
2013-10-01 14:23:00,77.7,61.7,29.72,ESE,105,12.0,17.0,58,0.00,,,0.00,meteohub,2013-10-01 18:23:00,
2013-10-01 14:28:00,78.3,61.7,29.72,WSW,251,5.0,17.0,57,0.00,,,0.00,meteohub,2013-10-01 18:28:00,
2013-10-01 14:33:00,78.4,61.5,29.72,South,188,4.0,18.0,56,0.00,,,0.00,meteohub,2013-10-01 18:33:00,
2013-10-01 14:38:00,78.4,61.0,29.71,South,187,15.0,18.0,55,0.00,,,0.00,meteohub,2013-10-01 18:38:00,
2013-10-01 14:43:00,78.4,61.9,29.70,SSW,212,4.0,18.0,57,0.00,,,0.00,meteohub,2013-10-01 18:43:00,
2013-10-01 14:48:00,78.6,62.1,29.70,SW,235,5.0,15.0,57,0.00,,,0.00,meteohub,2013-10-01 18:48:00,
2013-10-01 14:53:00,78.6,62.6,29.70,SSE,167,2.0,16.0,58,0.00,,,0.00,meteohub,2013-10-01 18:53:00,
2013-10-01 14:58:00,78.8,62.2,29.71,ESE,110,3.0,16.0,57,0.00,,,0.00,meteohub,2013-10-01 18:58:00,
2013-10-01 15:03:00,78.8,61.7,29.72,SW,219,5.0,16.0,56,0.00,,,0.00,meteohub,2013-10-01 19:03:00,
2013-10-01 15:08:00,78.8,61.7,29.71,SSW,209,5.0,14.0,56,0.00,,,0.00,meteohub,2013-10-01 19:08:00,
2013-10-01 15:13:00,78.8,62.2,29.71,SSE,150,4.0,14.0,57,0.00,,,0.00,meteohub,2013-10-01 19:13:00,
2013-10-01 15:18:00,79.0,62.4,29.71,SSW,197,5.0,11.0,57,0.00,,,0.00,meteohub,2013-10-01 19:18:00,
2013-10-01 15:23:00,79.0,62.4,29.71,NE,37,1.0,13.0,57,0.00,,,0.00,meteohub,2013-10-01 19:23:00,
2013-10-01 15:28:00,79.2,63.1,29.71,SW,233,1.0,13.0,58,0.00,,,0.00,meteohub,2013-10-01 19:28:00,
2013-10-01 15:33:00,79.5,61.3,29.71,SSW,202,2.0,13.0,54,0.00,,,0.00,meteohub,2013-10-01 19:33:00,
2013-10-01 15:39:00,79.5,61.9,29.72,NNE,27,3.0,11.0,55,0.00,,,0.00,meteohub,2013-10-01 19:39:00,
2013-10-01 15:44:00,79.9,62.2,29.71,WSW,243,0.0,11.0,55,0.00,,,0.00,meteohub,2013-10-01 19:44:00,
2013-10-01 15:49:00,80.4,61.7,29.71,NE,46,1.0,11.0,53,0.00,,,0.00,meteohub,2013-10-01 19:49:00,
2013-10-01 15:54:00,80.1,61.3,29.71,NNE,15,2.0,9.0,53,0.00,,,0.00,meteohub,2013-10-01 19:54:00,
2013-10-01 15:59:00,79.9,61.2,29.71,SSW,202,4.0,9.0,53,0.00,,,0.00,meteohub,2013-10-01 19:59:00,
2013-10-01 16:04:00,80.1,60.3,29.71,NE,49,3.0,12.0,51,0.00,,,0.00,meteohub,2013-10-01 20:04:00,
2013-10-01 16:09:00,79.5,59.7,29.71,West,263,7.0,12.0,51,0.00,,,0.00,meteohub,2013-10-01 20:09:00,
2013-10-01 16:14:00,79.3,59.7,29.71,East,84,7.0,12.0,51,0.00,,,0.00,meteohub,2013-10-01 20:14:00,
2013-10-01 16:19:00,79.2,60.1,29.71,WSW,238,3.0,13.0,52,0.00,,,0.00,meteohub,2013-10-01 20:19:00,
2013-10-01 16:24:00,78.4,59.9,29.71,NNE,20,6.0,13.0,53,0.00,,,0.00,meteohub,2013-10-01 20:24:00,
2013-10-01 16:29:00,78.1,60.1,29.72,South,182,1.0,13.0,54,0.00,,,0.00,meteohub,2013-10-01 20:29:00,
2013-10-01 16:34:00,77.5,60.1,29.71,WSW,248,5.0,10.0,55,0.00,,,0.00,meteohub,2013-10-01 20:34:00,
2013-10-01 16:39:00,77.4,60.4,29.72,SSE,159,1.0,10.0,56,0.00,,,0.00,meteohub,2013-10-01 20:39:00,
2013-10-01 16:44:00,77.2,60.8,29.72,SSW,196,1.0,8.0,57,0.00,,,0.00,meteohub,2013-10-01 20:44:00,
2013-10-01 16:49:00,76.8,61.0,29.72,SSW,201,2.0,7.0,58,0.00,,,0.00,meteohub,2013-10-01 20:49:00,
2013-10-01 16:54:00,76.6,60.8,29.72,NE,54,2.0,15.0,58,0.00,,,0.00,meteohub,2013-10-01 20:54:00,
2013-10-01 16:59:00,76.3,61.0,29.72,East,80,2.0,15.0,59,0.00,,,0.00,meteohub,2013-10-01 20:59:00,
2013-10-01 17:04:00,76.6,61.7,29.72,South,184,3.0,15.0,60,0.00,,,0.00,meteohub,2013-10-01 21:04:00,
2013-10-01 17:09:00,77.0,62.1,29.72,SSW,205,9.0,11.0,60,0.00,,,0.00,meteohub,2013-10-01 21:09:00,
2013-10-01 17:15:00,76.8,61.9,29.72,SSW,195,3.0,11.0,60,0.00,,,0.00,meteohub,2013-10-01 21:15:00,
2013-10-01 17:20:00,76.8,62.4,29.72,ENE,60,4.0,11.0,61,0.00,,,0.00,meteohub,2013-10-01 21:20:00,
2013-10-01 17:25:00,76.5,62.1,29.72,South,169,5.0,11.0,61,0.00,,,0.00,meteohub,2013-10-01 21:25:00,
2013-10-01 17:30:00,76.3,62.2,29.73,NW,317,9.0,16.0,62,0.00,,,0.00,meteohub,2013-10-01 21:30:00,
2013-10-01 17:35:00,76.1,62.6,29.73,ENE,66,2.0,16.0,63,0.00,,,0.00,meteohub,2013-10-01 21:35:00,
2013-10-01 17:40:00,76.3,62.8,29.73,WNW,287,2.0,9.0,63,0.00,,,0.00,meteohub,2013-10-01 21:40:00,
2013-10-01 17:45:00,75.9,62.4,29.73,North,3,2.0,9.0,63,0.00,,,0.00,meteohub,2013-10-01 21:45:00,
2013-10-01 17:50:00,75.7,62.2,29.73,WSW,250,2.0,12.0,63,0.00,,,0.00,meteohub,2013-10-01 21:50:00,
2013-10-01 17:55:00,75.6,62.6,29.74,East,79,1.0,12.0,64,0.00,,,0.00,meteohub,2013-10-01 21:55:00,
2013-10-01 18:01:00,75.0,62.4,29.75,NNE,22,4.0,12.0,65,0.00,,,0.00,meteohub,2013-10-01 22:01:00,
2013-10-01 18:06:00,74.5,62.4,29.75,SW,216,3.0,15.0,66,0.00,,,0.00,meteohub,2013-10-01 22:06:00,
2013-10-01 18:11:00,74.1,62.4,29.75,WNW,293,0.0,15.0,67,0.00,,,0.00,meteohub,2013-10-01 22:11:00,
2013-10-01 18:16:00,73.8,62.1,29.75,NNE,30,1.0,15.0,67,0.00,,,0.00,meteohub,2013-10-01 22:16:00,
2013-10-01 18:21:00,73.4,62.2,29.75,SE,138,2.0,6.0,68,0.00,,,0.00,meteohub,2013-10-01 22:21:00,
2013-10-01 18:26:00,73.0,62.2,29.75,ESE,102,0.0,6.0,69,0.00,,,0.00,meteohub,2013-10-01 22:26:00,
2013-10-01 18:31:00,72.9,62.4,29.75,NE,53,2.0,7.0,70,0.00,,,0.00,meteohub,2013-10-01 22:31:00,
2013-10-01 18:36:00,72.5,62.2,29.76,SSW,197,2.0,7.0,70,0.00,,,0.00,meteohub,2013-10-01 22:36:00,
2013-10-01 18:41:00,72.1,62.2,29.76,ENE,70,3.0,7.0,71,0.00,,,0.00,meteohub,2013-10-01 22:41:00,
2013-10-01 18:46:00,72.0,62.1,29.76,WNW,297,1.0,7.0,71,0.00,,,0.00,meteohub,2013-10-01 22:46:00,
2013-10-01 18:51:00,71.8,62.2,29.76,ENE,60,4.0,10.0,72,0.00,,,0.00,meteohub,2013-10-01 22:51:00,
2013-10-01 18:56:00,71.6,62.1,29.76,North,8,0.0,10.0,72,0.00,,,0.00,meteohub,2013-10-01 22:56:00,
2013-10-01 19:01:00,71.4,62.2,29.76,NNE,19,1.0,10.0,73,0.00,,,0.00,meteohub,2013-10-01 23:01:00,
2013-10-01 19:06:00,71.2,62.1,29.76,NNE,30,0.0,6.0,73,0.00,,,0.00,meteohub,2013-10-01 23:06:00,
2013-10-01 19:11:00,71.1,62.4,29.77,NNE,22,2.0,6.0,74,0.00,,,0.00,meteohub,2013-10-01 23:11:00,
2013-10-01 19:16:00,70.9,62.2,29.77,NE,39,2.0,5.0,74,0.00,,,0.00,meteohub,2013-10-01 23:16:00,
2013-10-01 19:20:00,70.7,62.4,29.77,SE,143,0.0,5.0,75,0.00,,,0.00,meteohub,2013-10-01 23:20:00,
2013-10-01 19:25:00,70.5,62.2,29.77,NE,54,2.0,6.0,75,0.00,,,0.00,meteohub,2013-10-01 23:25:00,
2013-10-01 19:30:00,70.3,62.4,29.77,ESE,121,3.0,6.0,76,0.00,,,0.00,meteohub,2013-10-01 23:30:00,
2013-10-01 19:35:00,70.2,62.2,29.77,SE,136,3.0,6.0,76,0.00,,,0.00,meteohub,2013-10-01 23:35:00,
2013-10-01 19:40:00,70.0,62.4,29.77,SSW,210,0.0,6.0,77,0.00,,,0.00,meteohub,2013-10-01 23:40:00,
2013-10-01 19:45:00,69.6,62.1,29.77,SSE,160,0.0,6.0,77,0.00,,,0.00,meteohub,2013-10-01 23:45:00,
2013-10-01 19:50:00,69.6,62.1,29.77,SSE,155,0.0,7.0,77,0.00,,,0.00,meteohub,2013-10-01 23:50:00,
2013-10-01 19:55:00,69.4,62.2,29.77,South,179,3.0,7.0,78,0.00,,,0.00,meteohub,2013-10-01 23:55:00,
2013-10-01 20:00:00,69.4,62.2,29.77,SSW,197,1.0,7.0,78,0.00,,,0.00,meteohub,2013-10-02 00:00:00,
2013-10-01 20:05:00,69.3,62.1,29.78,East,100,1.0,6.0,78,0.00,,,0.00,meteohub,2013-10-02 00:05:00,
2013-10-01 20:10:00,69.1,62.2,29.78,SSE,155,0.0,5.0,79,0.00,,,0.00,meteohub,2013-10-02 00:10:00,
2013-10-01 20:15:00,69.1,62.2,29.78,NNE,33,3.0,5.0,79,0.00,,,0.00,meteohub,2013-10-02 00:15:00,
2013-10-01 20:16:00,68.9,62.1,29.78,SE,136,1.0,5.0,79,0.00,,,0.00,meteohub,2013-10-02 00:16:00,
2013-10-01 20:21:00,68.7,61.9,29.78,ESE,117,3.0,5.0,79,0.00,,,0.00,meteohub,2013-10-02 00:21:00,
2013-10-01 20:26:00,68.7,62.2,29.78,ENE,77,1.0,5.0,80,0.00,,,0.00,meteohub,2013-10-02 00:26:00,
2013-10-01 20:31:00,68.5,62.1,29.78,ENE,62,2.0,5.0,80,0.00,,,0.00,meteohub,2013-10-02 00:31:00,
2013-10-01 20:36:00,68.4,62.2,29.78,North,6,3.0,5.0,81,0.00,,,0.00,meteohub,2013-10-02 00:36:00,
2013-10-01 20:41:00,68.4,62.2,29.78,East,91,1.0,4.0,81,0.00,,,0.00,meteohub,2013-10-02 00:41:00,
2013-10-01 20:46:00,68.2,62.1,29.78,West,278,0.0,6.0,81,0.00,,,0.00,meteohub,2013-10-02 00:46:00,
2013-10-01 20:51:00,68.2,62.4,29.79,ENE,75,2.0,6.0,82,0.00,,,0.00,meteohub,2013-10-02 00:51:00,
2013-10-01 20:56:00,68.2,62.4,29.78,SW,227,0.0,6.0,82,0.00,,,0.00,meteohub,2013-10-02 00:56:00,
2013-10-01 21:02:00,67.8,62.1,29.79,ESE,106,1.0,6.0,82,0.00,,,0.00,meteohub,2013-10-02 01:02:00,
2013-10-01 21:07:00,67.8,62.1,29.78,East,90,3.0,6.0,82,0.00,,,0.00,meteohub,2013-10-02 01:07:00,
2013-10-01 21:12:00,67.6,62.2,29.79,West,261,2.0,7.0,83,0.00,,,0.00,meteohub,2013-10-02 01:12:00,
2013-10-01 21:17:00,67.6,62.2,29.79,ESE,112,0.0,7.0,83,0.00,,,0.00,meteohub,2013-10-02 01:17:00,
2013-10-01 21:22:00,67.5,62.1,29.79,SE,141,6.0,7.0,83,0.00,,,0.00,meteohub,2013-10-02 01:22:00,
2013-10-01 21:27:00,67.5,62.4,29.79,SE,126,1.0,6.0,84,0.00,,,0.00,meteohub,2013-10-02 01:27:00,
2013-10-01 21:32:00,67.3,62.2,29.79,NE,55,3.0,6.0,84,0.00,,,0.00,meteohub,2013-10-02 01:32:00,
2013-10-01 21:37:00,67.3,62.2,29.79,SSE,155,4.0,6.0,84,0.00,,,0.00,meteohub,2013-10-02 01:37:00,
2013-10-01 21:42:00,67.1,62.1,29.79,SSW,212,0.0,7.0,84,0.00,,,0.00,meteohub,2013-10-02 01:42:00,
2013-10-01 21:47:00,66.9,62.2,29.79,SSE,168,4.0,7.0,85,0.00,,,0.00,meteohub,2013-10-02 01:47:00,
2013-10-01 21:52:00,66.9,62.2,29.79,ESE,116,5.0,8.0,85,0.00,,,0.00,meteohub,2013-10-02 01:52:00,
2013-10-01 21:57:00,66.7,62.1,29.79,East,91,4.0,8.0,85,0.00,,,0.00,meteohub,2013-10-02 01:57:00,
2013-10-01 22:02:00,66.7,62.1,29.79,SSW,197,6.0,8.0,85,0.00,,,0.00,meteohub,2013-10-02 02:02:00,
2013-10-01 22:07:00,66.7,62.4,29.79,East,83,1.0,8.0,86,0.00,,,0.00,meteohub,2013-10-02 02:07:00,
2013-10-01 22:12:00,66.6,62.2,29.79,SW,230,3.0,8.0,86,0.00,,,0.00,meteohub,2013-10-02 02:12:00,
2013-10-01 22:17:00,66.6,62.2,29.79,WNW,282,0.0,7.0,86,0.00,,,0.00,meteohub,2013-10-02 02:17:00,
2013-10-01 22:22:00,66.4,62.1,29.79,ENE,58,1.0,8.0,86,0.00,,,0.00,meteohub,2013-10-02 02:22:00,
2013-10-01 22:27:00,66.6,62.2,29.80,East,93,4.0,8.0,86,0.00,,,0.00,meteohub,2013-10-02 02:27:00,
2013-10-01 22:32:00,66.4,62.1,29.79,South,179,1.0,11.0,86,0.00,,,0.00,meteohub,2013-10-02 02:32:00,
2013-10-01 22:37:00,66.4,62.1,29.79,SE,124,4.0,11.0,86,0.00,,,0.00,meteohub,2013-10-02 02:37:00,
2013-10-01 22:42:00,66.4,62.1,29.79,SSE,152,1.0,10.0,86,0.00,,,0.00,meteohub,2013-10-02 02:42:00,
2013-10-01 22:47:00,66.4,62.4,29.80,NE,39,5.0,9.0,87,0.00,,,0.00,meteohub,2013-10-02 02:47:00,
2013-10-01 22:52:00,66.4,62.1,29.80,East,95,2.0,9.0,86,0.00,,,0.00,meteohub,2013-10-02 02:52:00,
2013-10-01 22:57:00,66.2,62.2,29.80,NE,36,1.0,9.0,87,0.00,,,0.00,meteohub,2013-10-02 02:57:00,
2013-10-01 23:02:00,66.2,62.2,29.80,ENE,74,3.0,9.0,87,0.00,,,0.00,meteohub,2013-10-02 03:02:00,
2013-10-01 23:07:00,66.2,62.2,29.80,NE,40,1.0,7.0,87,0.00,,,0.00,meteohub,2013-10-02 03:07:00,
2013-10-01 23:12:00,66.0,62.1,29.80,NE,56,1.0,7.0,87,0.00,,,0.00,meteohub,2013-10-02 03:12:00,
2013-10-01 23:17:00,66.0,62.1,29.80,North,357,1.0,6.0,87,0.00,,,0.00,meteohub,2013-10-02 03:17:00,
2013-10-01 23:22:00,66.0,62.1,29.80,NE,47,2.0,6.0,87,0.00,,,0.00,meteohub,2013-10-02 03:22:00,
2013-10-01 23:27:00,65.8,61.9,29.80,SE,143,2.0,6.0,87,0.00,,,0.00,meteohub,2013-10-02 03:27:00,
2013-10-01 23:32:00,65.8,61.9,29.81,ESE,102,3.0,6.0,87,0.00,,,0.00,meteohub,2013-10-02 03:32:00,
2013-10-01 23:37:00,65.8,61.9,29.81,NE,44,0.0,5.0,87,0.00,,,0.00,meteohub,2013-10-02 03:37:00,
2013-10-01 23:42:00,65.7,61.7,29.81,South,188,1.0,5.0,87,0.00,,,0.00,meteohub,2013-10-02 03:42:00,
2013-10-01 23:47:00,65.7,61.7,29.81,North,11,0.0,5.0,87,0.00,,,0.00,meteohub,2013-10-02 03:47:00,
2013-10-01 23:52:00,65.8,61.9,29.81,ENE,67,0.0,6.0,87,0.00,,,0.00,meteohub,2013-10-02 03:52:00,
2013-10-01 23:57:00,65.7,61.7,29.81,ESE,110,0.0,6.0,87,0.00,,,0.00,meteohub,2013-10-02 03:57:00,